Regional Weather Roundup
Issued by NWS Albany, NY

Home | Current Version | Previous Version | Graphics & Text | Print | Product List | Glossary Off
Versions: 1 2 3 4 5 6 7 8 9 10 11 12 13 14 15 16 17 18 19 20 21 22 23 24 25 26 27 28 29 30 31 32 33 34 35 36 37 38 39 40 41 42 43 44 45 46 47 48 49 50

000
ASUS41 KALY 301610
RWRALY

NEW YORK STATE HOURLY WEATHER ROUNDUP
NATIONAL WEATHER SERVICE ALBANY NY
1200 PM EDT TUE JUN 30 2015

NOTE: "FAIR" INDICATES FEW OR NO CLOUDS BELOW 12,000 FEET WITH NO
SIGNIFICANT WEATHER AND/OR NO OBSTRUCTIONS TO VISIBILITY.

NYZ032-033-038>043-046>054-057>066-NYZ062>081-301700-
EAST


CITY           SKY/WX    TMP DP  RH WIND       PRES   REMARKS
ALBANY         LGT RAIN  69  58  67 CALM      29.97F
GLENS FALLS    PTSUNNY   70  56  61 SW6       29.97S
POUGHKEEPSIE   PTSUNNY   76  63  64 CALM      29.94F
NEWBURGH       PTSUNNY   72  64  78 E7        29.97F
MONTGOMERY     LGT RAIN  71  65  81 N7        29.95F
WHITE PLAINS   MOSUNNY   79  60  52 S15       29.96F
ISLIP          MOSUNNY   78  59  51 S12       29.97F
NEW YORK CITY  MOSUNNY   80  57  45 S22G29    29.95F
CENTRAL PARK   SUNNY     79  56  45 S9G24     29.98F
$$

NYZ005>009-017-018-044>046-055-056-301700-
CENTRAL


CITY           SKY/WX    TMP DP  RH WIND       PRES   REMARKS
FULTON         LGT RAIN  63  60  90 VRB5      29.88F
SYRACUSE       LGT RAIN  62  60  93 E9        29.89S
ROME           HVY RAIN  61  59  93 E14       29.95S FOG
ELMIRA         CLOUDY    68  64  87 CALM      29.87F
BINGHAMTON     CLOUDY    63  61  93 SE13      29.92S
MONTICELLO     CLOUDY    61  59  94 SE9       30.01R
$$

NYZ026>034-041>043-301700-
NORTH


CITY           SKY/WX    TMP DP  RH WIND       PRES   REMARKS
WATERTOWN      CLOUDY    67  55  65 SE3       29.90R
FORT DRUM      NOT AVBL
MASSENA        MOSUNNY   76  56  49 E6        29.92F
SARANAC LAKE   MOSUNNY   73  53  49 VRB7G20   29.94F
PLATTSBURGH    SUNNY     71  61  70 SE13      29.95S
$$

NYZ001>004-010>016-019>021-301700-
WEST


CITY           SKY/WX    TMP DP  RH WIND       PRES   REMARKS
NIAGARA FALLS  TSTM      64  61  90 S6        29.81S FOG
BUFFALO        CLOUDY    68  61  78 S3        29.81S
DUNKIRK        CLOUDY    69  63  81 W10       29.81S
JAMESTOWN      CLOUDY    64  61  88 S10       29.86S
WELLSVILLE     CLOUDY    65  60  84 S13       29.90S
ROCHESTER      CLOUDY    69  62  78 SE6       29.83F
PENN YAN       CLOUDY    68  63  84 S8        29.87F
$$

             KEY
       WCI = WIND CHILL INDEX
       VSB = VISIBILITY
       HX  = HEAT INDEX
$$


USA.gov is the U.S. government's official web portal to all federal, state and local government web resources and services.